This demonstration page uses our WeatherBlox Daily Observations layout. Learn more.

Left ArrowRight Arrow

36.17497, -115.13722

Hourly Observations for May 9, 2016

Temp ( °F °C ) Dew Point ( °F °C ) Humidity (%) Winds ( mph kmh ) Pressure ( in mb ) Visibility ( mi km ) Precip ( " mm )
12:53 am 00:53 Clear 65 18.3 42 5.6 43 43 WSW 7 11 29.82 1010 10 16 N/A
1:53 am 01:53 Clear 65 18.3 41 5 42 42 SW 6 9 29.81 1010 10 16 N/A
2:53 am 02:53 Clear 65 18.3 42 5.6 43 43 SSW 7 11 29.81 1010 10 16 N/A
3:53 am 03:53 Clear 61 16.1 44 6.7 54 54 N N/A 29.81 1010 10 16 N/A
4:53 am 04:53 Clear 60 15.6 45 7.2 58 58 VRB 3 6 29.83 1010 10 16 N/A
5:53 am 05:53 Sunny 60 15.6 45 7.2 58 58 N N/A 29.84 1010 10 16 N/A
6:53 am 06:53 Sunny 61 16.1 46 7.8 58 58 ESE 5 7 29.85 1011 10 16 N/A
7:53 am 07:53 Sunny 65 18.3 45 7.2 49 49 N N/A 29.86 1011 10 16 N/A
8:53 am 08:53 Sunny 69 20.6 45 7.2 42 42 N N/A 29.86 1011 10 16 N/A
9:53 am 09:53 Sunny 72 22.2 44 6.7 37 37 SSE 3 6 29.87 1011 10 16 N/A
10:53 am 10:53 Sunny 75 23.9 42 5.6 31 31 S 8 13 29.85 1011 10 16 N/A
11:53 am 11:53 Sunny 78 25.6 42 5.6 28 28 SE 9 15 29.85 1011 10 16 N/A
12:53 pm 12:53 Sunny 80 26.7 41 5 25 25 undefined N/A 29.81 1010 10 16 N/A
1:32 pm 13:32 Sunny 82 28 41 5 23 23 S 10 17 29.65 1004 10 16 N/A
1:53 pm 13:53 Sunny 82 27.8 41 5 23 23 ESE 8 13 29.79 1009 10 16 N/A
2:26 pm 14:26 Sunny 84 29 43 6 23 23 SSW 9 15 29.65 1004 10 16 N/A
2:53 pm 14:53 Sunny 84 28.9 42 5.6 23 23 undefined N/A 29.76 1008 10 16 N/A
3:53 pm 15:53 Sunny 85 29.4 40 4.4 20 20 SSW 12 19 29.74 1007 10 16 N/A
4:53 pm 16:53 Sunny 85 29.4 39 3.9 20 20 SSW 14 22 29.72 1007 10 16 N/A
5:53 pm 17:53 Sunny 85 29.4 38 3.3 19 19 W 13 20 29.71 1006 10 16 N/A
6:53 pm 18:53 Sunny 83 28.3 38 3.3 20 20 WSW 17 28 29.71 1006 10 16 N/A
7:53 pm 19:53 Clear 81 27.2 38 3.3 21 21 SW 16 26 29.72 1007 10 16 N/A
8:53 pm 20:53 Clear 80 26.7 38 3.3 22 22 SSW 13 20 29.73 1007 10 16 N/A
9:53 pm 21:53 Clear 77 25 39 3.9 26 26 SSW 12 19 29.75 1008 10 16 N/A
10:53 pm 22:53 Clear 77 25 40 4.4 26 26 SW 16 26 29.75 1008 10 16 N/A
11:53 pm 23:53 Clear 75 23.9 40 4.4 28 28 W 7 11 29.77 1008 10 16 N/A

Powered by AerisWeather